www.pogodaiklimat.ru

Погода и климат >> Архив погоды >> Индия >> Орисса >> Самбалпур


ПОГОДА в Самбалпуре

  • Прогноз погоды в Самбалпуре
  • Монитор погоды в Самбалпуре

АРХИВ ПОГОДЫ в Самбалпуре

Время (UTC), дата Ветер
(напр.,м/с)
 
Видим.   Явления Облачность Т
(С)
Тd
(С)
f
(%)
Тe
(С)
Тes
(С)
Комфортность P
(гПа)
Po
(гПа)
Тmin
(С)
Tmax
(С)
R
(мм)
R24
(мм)
S
(см)
00 12.08 штиль 0 2000 м мгла {дождь} 10/6 600 м
[Sc As op]
+27.0 +25.9 94 +40 +40 очень
душно
999.5 982.8 0.7
03 12.08 штиль 0 4000 м 9/5 600 м
[Sc Ac trans]
+28.6 +26.4 88 +44 +47 опасность
перегрева
1000.3 983.7 +25.6 0.7
06 12.08 штиль 0 4000 м в посл. час дождь 9/5 600 м
[Sc As op]
+30.0 +27.8 88 +49 +54 опасность
перегрева
1000.0 983.5 0.7
09 12.08 штиль 0 4000 м {дождь} 10/6 600 м
[Sc As op]
+28.6 +27.8 95 +47 +48 опасность
перегрева
997.8 981.2 13
12 12.08 штиль 0 2000 м слаб. дождь 10/8 600 м
[Sc diur, vesp As op]
+26.4 +25.8 97 +39 +39 очень
душно
998.4 981.7 +30.2 20
00 13.08 штиль 0 1000 м слаб. дождь 10/5 600 м
[Sc As op]
+26.2 +25.9 98 +39 +39 очень
душно
997.0 980.3 33
03 13.08 штиль 0 2000 м слаб. дождь {гроза} 10/6 600 м
[Sc As op]
+26.2 +25.9 98 +39 +40 очень
душно
999.0 982.3 +24.1 78
06 13.08 штиль 0 4000 м слаб. дождь {гроза} 10/6 600 м
[Sc As op]
+26.2 +25.9 98 +39 +41 очень
душно
999.2 982.5 4
09 13.08 штиль 0 4000 м {дождь} 9/5 600 м
[Sc diur, vesp Ac trans]
+27.6 +27.0 97 +43 +48 опасность
перегрева
997.2 980.6 5
12 13.08 ЮЗ 1 2000 м мгла {дождь} 10/6 600 м
[Sc As op]
+27.6 +26.5 94 +42 +43 опасность
перегрева
996.8 980.2 +28.5 5
00 14.08 штиль 0 4000 м в посл. час дождь 10/6 600 м
[Sc As op]
+24.2 +23.9 98 +33 +33 очень
душно
999.6 982.7 43
03 14.08 штиль 0 2000 м слаб. дождь 10/6 600 м
[Sc As op Ci fib]
+24.6 +24.3 98 +34 +37 очень
душно
1001.8 984.9 +22.8 56
06 14.08 штиль 0 4000 м в посл. час дождь 9/5 600 м
[Sc diur, vesp Ac trans Ci fib]
+26.2 +25.9 98 +39 +48 очень
душно
1002.2 985.4 6
09 14.08 штиль 0 4000 м 10/6 600 м
[Sc As op]
+26.2 +25.9 98 +39 +40 очень
душно
1001.2 984.4 6
12 14.08 штиль 0 4000 м 6/5 600 м
[Sc diur, vesp Ac trans]
+27.0 +25.6 92 +40 +40 очень
душно
1001.0 984.3 +27.6 6
00 15.08 штиль 0 4000 м {дождь} 5/3 600 м
[Sc Ac trans]
+24.8 +24.5 98 +35 +35 очень
душно
1004.4 987.5 9
03 15.08 штиль 0 4000 м 3/3 600 м
[Sc]
+28.0 +25.4 86 +41 +50 опасность
перегрева
1005.9 989.1 +23.4 9
06 15.08 Ю 1 4000 м 6/6 600 м
[Sc diur, vesp]
+31.2 +25.6 72 +46 +57 опасность
перегрева
1005.7 989.1
09 15.08 штиль 0 4000 м 9/6 600 м
[Sc diur, vesp Ac trans]
+32.4 +26.3 70 +49 +53 опасность
перегрева
1003.3 986.8
12 15.08 штиль 0 4000 м 6/4 600 м
[Sc diur, vesp Ac trans]
+31.4 +27.3 79 +50 +50 опасность
перегрева
1002.4 985.9 +32.6
00 16.08 штиль 0 4000 м 4/4 600 м
[Sc]
+26.6 +25.7 95 +39 +39 очень
душно
1004.8 988.0
03 16.08 штиль 0 4000 м 4/4 600 м
[Sc]
+29.4 +26.6 85 +45 +53 опасность
перегрева
1005.6 988.9 +25.4
06 16.08 штиль 0 4000 м 5/5 600 м
[Sc diur, vesp]
+33.0 +27.2 72 +52 +66 опасность
перегрева
1004.8 988.3
09 16.08 штиль 0 4000 м 3/3 600 м
[Sc]
+33.6 +26.7 67 +51 +64 опасность
перегрева
1002.7 986.3
12 16.08 штиль 0 4000 м 5/4 600 м
[Sc diur, vesp Ac trans]
+32.6 +27.7 75 +52 +53 опасность
перегрева
1001.1 984.7 +34.2
00 17.08 штиль 0 4000 м 3/3 600 м
[Sc diur, vesp]
+27.2 +25.5 90 +40 +40 очень
душно
1003.5 986.7
03 17.08 штиль 0 4000 м 4/1 600 м
[Sc Ac trans]
+28.8 +26.0 85 +43 +52 опасность
перегрева
1004.8 988.1 +25.7
06 17.08 штиль 0 4000 м 6/5 600 м
[Sc Ac trans]
+32.6 +27.4 74 +51 +64 опасность
перегрева
1004.7 988.2
09 17.08 штиль 0 4000 м 5/3 600 м
[Sc Ac trans]
+34.0 +27.1 67 +52 +63 опасность
перегрева
1002.0 985.6
12 17.08 штиль 0 4000 м 8/5 600 м
[Sc Ac trans Ci fib]
+32.4 +28.0 78 +53 +53 опасность
перегрева
1001.5 985.1 +34.5
00 18.08 штиль 0 2000 м гроза, ливневой дождь 10/6 600 м
[Cb cap As op]
+24.4 +24.4 100 +34 +34 очень
душно
1005.6 988.7 20
03 18.08 штиль 0 2000 м слаб. дождь {гроза} 10/6 600 м
[Sc As op]
+24.8 +24.5 98 +35 +36 очень
душно
1007.0 990.0 +22.6 47
06 18.08 штиль 0 4000 м {гроза, дождь} 9/6 600 м
[Sc Ac trans]
+25.4 +25.1 98 +36 +43 очень
душно
1006.4 989.5 1
09 18.08 штиль 0 4000 м 6/5 600 м
[Sc diur, vesp Ac trans]
+29.2 +26.1 83 +44 +52 опасность
перегрева
1003.5 986.9 1
12 18.08 штиль 0 4000 м 6/5 600 м
[Sc diur, vesp Ac trans]
+28.8 +26.6 88 +45 +45 опасность
перегрева
1002.7 986.0 +29.6 1

 

Местоположение метеостанции Самбалпур (Орисса, Индия): широта 21.47 долгота 83.97 высота над уровнем моря 148 м.

В архиве по умолчанию представлена погода в Самбалпуре за последнюю неделю. Архивные данные за месяц целиком и за предыдущие месяцы, начиная с января 2011 года, Вы можете получить, выбрав интересующий диапазон дат из раскрывающегося списка и нажав кнопку "Ввод!".


*Определитесь, кто Вы:
робот инопланетянин человек

Внимание! Время в таблицах - всемирное. Для получения местного времени необходимо прибавить поправку, которая равна 5.5 ч.

Смотрите также архив погоды в соседних городах и на ближайших метеорологических станциях:

Погода в Харакаде (Орисса, Индия) (12 км)
Погода в Джхарсугуде (Орисса, Индия) (51 км)
Погода в Сундаргархе (Орисса, Индия) (73 км)
Погода в Пхулбани (Орисса, Индия) (114 км)
Погода в Ангуле (Орисса, Индия) (137 км)
Погода в Титилагаре (Орисса, Индия) (148 км)
Погода в Кендуджхаре (Орисса, Индия) (161 км)
Погода в Бхаванипатне (Орисса, Индия) (191 км)
Погода в Биласпуре (Чхаттисгарх, Индия) (199 км)
Погода в Амбикапуре (Чхаттисгарх, Индия) (203 км)

Пояснения к столбцам:

Ветер - указаны скорость ветра в м/с - средняя за 10 мин, порывы в срок и между сроками (в фигурных скобках) и направление, откуда дует ветер: С - северный, СВ - северо-восточный, В - восточный, ЮВ - юго-восточный, Ю - южный, ЮЗ - юго-западный, З - западный, СЗ - северо-западный.
Видимость - горизонтальная дальность видимости в метрах или километрах. При видимости от 1 до 10 км при отсутствии осадков обычно наблюдается дымка, при ухудшении видимости до 1 км и менее - туман. В сухую погоду видимость может ухудшаться дымом, пылью или мглою.
Явления - указаны атмосферные явления, наблюдавшиеся в срок или в последний час перед сроком; фигурными скобками обозначены явления, наблюдавшиеся между сроками (за 1-3 часа до срока); квадратными скобками обозначены град или гололедные отложения с указанием их диаметра в мм.
Облачность - указаны через наклонную черту общая и нижняя облачность в баллах и высота нижней границы облаков в метрах; квадратными скобками обозначены формы облаков: Ci - перистые, Cs - перисто-слоистые, Cc - перисто-кучевые, Ac - высококучевые, As - высокослоистые, Sc - слоисто-кучевые, Ns - слоисто-дождевые, Cu - кучевые, Cb - кучево-дождевые. Подробнее классификацию облаков см. в Атласе облаков (PDF).
T - Температура воздуха - температура, измеренная на высоте 2 м над землей.
Td - Температура точки росы - температура, при понижении до которой содержащийся в воздухе водяной пар достигнет насыщения.
f - Относительная влажность воздуха - влажноcть воздуха, измеренная на высоте 2 м над землей.
Te - Эффективная температура - температура, которую ощущает одетый по сезону человек в тени. Характеристика душности погоды. При расчете учитывается влияние влажности воздуха и скорости ветра на теплоощущения человека.
Tes - Эффективная температура на солнце - температура, которую ощущает человек, с поправкой на солнечный нагрев. Характеристика знойности погоды. Зависит от высоты солнца над горизонтом, облачности и скорости ветра. Ночью, в пасмурную погоду, а также при ветре 12 м/с и более поправка равна нулю.
P - Атмосферное давление - приведенное к уровню моря атмосферное давление.
Po - Атмосферное давление - измеренное на уровне метеостанции атмосферное давление.
Tmin - Минимальная температура - минимум температуры воздуха на высоте 2 м над землей.
Tmax - Максимальная температура - максимум температуры воздуха на высоте 2 м над землей.
R - Количество осадков - Количество выпавших осадков за период времени, мм. При наведении курсора мыши на число - период времени, за который выпало указанное количество осадков.
R24 - Количество осадков - Количество выпавших осадков за 24 часа, мм.
S - Снежный покров - Высота снежного покрова, см. При наведении курсора мыши на число - состояние снежного покрова и степень покрытия местности в баллах.